Simultaneous Nadir Overpasses (SNOs) Predictions

Prediction of SNOs near equator between AQUA and NPP Satellite Orbit:

Table of predicted SNOs near equator for the next 14.0 days since TLE Epoch: 9/22/2017
Index Date (AQUA) Time (AQUA) AQUA Lat,Lon Date (NPP) Time (NPP) NPP Lat,Lon Distance(km) Time Diff (sec)
1 09/23/2017 23:26:18 29.97,-152.50 09/23/2017 23:16:18 30.43,-152.85 60.41 600
2 09/24/2017 00:08:09 -2.77, 21.39 09/23/2017 23:59:07 -2.75, 21.18 23.17 542
3 09/24/2017 00:56:24 -1.83,-170.01 09/24/2017 00:48:37 -1.91,-170.48 52.73 467
4 09/24/2017 01:44:32 6.30, -1.40 09/24/2017 01:38:00 6.48, -2.13 82.24 392
5 09/26/2017 15:36:17 6.44, -31.18 09/26/2017 15:26:25 6.45, -31.21 3.96 592
6 09/26/2017 16:24:13 -1.25, 137.59 09/26/2017 16:15:36 -1.17, 137.30 32.85 517
7 09/26/2017 17:12:28 -3.35, -53.82 09/26/2017 17:05:06 -3.48, -54.36 62.35 442
8 09/26/2017 18:00:35 7.88, 114.81 09/26/2017 17:54:29 8.05, 114.00 91.54 366
9 09/29/2017 07:52:10 4.20, 85.17 09/29/2017 07:42:43 4.17, 85.07 12.52 567
10 09/29/2017 08:40:17 0.33,-106.20 09/29/2017 08:32:06 0.40,-106.58 42.62 491
11 09/29/2017 09:28:32 -4.93, 62.40 09/29/2017 09:21:36 -5.05, 61.76 71.95 416
12 10/01/2017 23:26:17 -30.00, 27.50 10/01/2017 23:16:17 -30.33, 27.18 47.86 600
13 10/02/2017 00:08:14 2.63,-158.61 10/01/2017 23:59:13 2.60,-158.81 22.37 541
14 10/02/2017 00:56:21 1.89, 10.01 10/02/2017 00:48:36 1.97, 9.54 52.49 465
15 10/02/2017 01:44:36 -6.50, 178.61 10/02/2017 01:38:06 -6.62, 177.88 81.54 390
16 10/04/2017 15:36:07 -5.92, 148.94 10/04/2017 15:26:17 -5.92, 148.91 3.21 590
17 10/04/2017 16:24:18 1.07, -42.41 10/04/2017 16:15:43 1.03, -42.69 32.33 515
18 10/04/2017 17:12:25 3.45, 126.21 10/04/2017 17:05:05 3.60, 125.67 62.20 440
19 10/04/2017 18:00:41 -8.00, -65.19 10/04/2017 17:54:36 -8.19, -66.00 90.99 365




NCC Satellite Simultaneous Nadir Overpasses (SNOs) Prediction Service
